| time (UTC) | temp C | wind direction | speed KPH | gust KPH | rain 1hr cm | rain 24hr cm | rain mn cm | humidity % | barometer mb |
| 20260904133439 | 25 | 202 | 19.3 | 24.1 | 0.00 | 0.05 | 0.00 | 52 | 1031.1 |
| 20260904133038 | 25 | 225 | 12.9 | 24.1 | 0.00 | 0.05 | 0.00 | 52 | 1034.3 |
| 20260904132939 | 25 | 202 | 12.9 | 24.1 | 0.00 | 0.05 | 0.00 | 52 | 1010.3 |
| 20260904132439 | 25 | 292 | 25.7 | 25.7 | 0.00 | 0.05 | 0.00 | 52 | 1055.4 |
| 20260904131939 | 25 | 247 | 9.7 | 29.0 | 0.00 | 0.05 | 0.00 | 52 | 1034.3 |
| 20260904131439 | 26 | 180 | 19.3 | 22.5 | 0.00 | 0.05 | 0.00 | 51 | 1055.7 |
| 20260904130939 | 25 | 202 | 8.0 | 24.1 | 0.00 | 0.05 | 0.00 | 52 | 1035.2 |
| 20260904130439 | 25 | 225 | 17.7 | 20.9 | 0.00 | 0.05 | 0.00 | 52 | 1020.0 |
| 20260904125939 | 25 | 180 | 11.3 | 29.0 | 0.00 | 0.05 | 0.00 | 52 | 1040.6 |
| 20260904125738 | 25 | 180 | 8.0 | 29.0 | 0.00 | 0.05 | 0.00 | 52 | 1028.9 |
| 20260904125439 | 25 | 225 | 6.4 | 24.1 | 0.00 | 0.05 | 0.00 | 51 | 1055.4 |
| 20260904124939 | 25 | 180 | 16.1 | 22.5 | 0.00 | 0.05 | 0.00 | 51 | 1044.3 |
| 20260904124440 | 25 | 247 | 14.5 | 22.5 | 0.00 | 0.05 | 0.00 | 51 | 1044.9 |
| 20260904123939 | 25 | 292 | 4.8 | 27.4 | 0.00 | 0.05 | 0.00 | 51 | 1049.4 |
| 20260904123439 | 25 | 270 | 22.5 | 24.1 | 0.00 | 0.05 | 0.00 | 51 | 1050.1 |
| 20260904122939 | 25 | 225 | 11.3 | 30.6 | 0.00 | 0.05 | 0.00 | 51 | 1035.4 |
| 20260904122438 | 25 | 270 | 16.1 | 29.0 | 0.00 | 0.05 | 0.00 | 51 | 1035.4 |
| 20260904121939 | 25 | 247 | 33.8 | 35.4 | 0.00 | 0.05 | 0.00 | 50 | 1040.6 |
| 20260904121440 | 25 | 225 | 24.1 | 30.6 | 0.00 | 0.05 | 0.00 | 51 | 1059.3 |
| 20260904120939 | 25 | 157 | 6.4 | 25.7 | 0.00 | 0.05 | 0.00 | 51 | 1044.7 |
| 20260904120439 | 25 | 270 | 20.9 | 30.6 | 0.00 | 0.05 | 0.00 | 50 | 1030.9 |
| 20260904115939 | 25 | 270 | 17.7 | 29.0 | 0.00 | 0.05 | 0.00 | 50 | 1024.8 |
| 20260904115439 | 25 | 292 | 14.5 | 25.7 | 0.00 | 0.05 | 0.00 | 51 | 1031.2 |
| 20260904115138 | 25 | 247 | 12.9 | 27.4 | 0.00 | 0.05 | 0.00 | 51 | 1059.3 |
| 20260904114939 | 25 | 202 | 19.3 | 27.4 | 0.00 | 0.05 | 0.00 | 51 | 1045.5 |
| 20260904114439 | 25 | 202 | 16.1 | 27.4 | 0.00 | 0.05 | 0.00 | 51 | 1037.5 |
| 20260904113939 | 25 | 247 | 27.4 | 32.2 | 0.00 | 0.05 | 0.00 | 51 | 1034.3 |
| 20260904113439 | 25 | 225 | 22.5 | 30.6 | 0.00 | 0.05 | 0.00 | 51 | 1040.6 |
| 20260904112939 | 25 | 225 | 30.6 | 35.4 | 0.00 | 0.05 | 0.00 | 51 | 1021.1 |
| 20260904112439 | 25 | 225 | 32.2 | 32.2 | 0.00 | 0.05 | 0.00 | 50 | 1043.7 |
| 20260904111939 | 26 | 270 | 22.5 | 27.4 | 0.00 | 0.05 | 0.00 | 50 | 1047.3 |
| 20260904111838 | 26 | 270 | 11.3 | 27.4 | 0.00 | 0.05 | 0.00 | 50 | 1020.1 |
| 20260904111439 | 26 | 270 | 12.9 | 30.6 | 0.00 | 0.05 | 0.00 | 51 | 1052.8 |
| 20260904110939 | 26 | 247 | 25.7 | 33.8 | 0.00 | 0.05 | 0.00 | 52 | 1064.3 |
| 20260904110439 | 25 | 270 | 6.4 | 30.6 | 0.00 | 0.05 | 0.00 | 53 | 1040.3 |
| 20260904105939 | 25 | 247 | 16.1 | 40.2 | 0.00 | 0.05 | 0.00 | 53 | 1034.3 |
| 20260904105439 | 25 | 247 | 22.5 | 35.4 | 0.00 | 0.05 | 0.00 | 53 | 1046.9 |
| 20260904104939 | 25 | 270 | 22.5 | 29.0 | 0.00 | 0.05 | 0.00 | 55 | 1034.1 |
| 20260904104538 | 25 | 180 | 12.9 | 29.0 | 0.00 | 0.05 | 0.00 | 55 | 1040.7 |
| 20260904104439 | 25 | 202 | 22.5 | 29.0 | 0.00 | 0.05 | 0.00 | 55 | 1052.3 |
| 20260904103939 | 25 | 247 | 11.3 | 32.2 | 0.00 | 0.05 | 0.00 | 54 | 1054.2 |
| 20260904103439 | 25 | 247 | 24.1 | 30.6 | 0.00 | 0.05 | 0.00 | 54 | 1040.6 |
| 20260904102939 | 25 | 202 | 19.3 | 37.0 | 0.00 | 0.05 | 0.00 | 55 | 1046.5 |
| 20260904102439 | 25 | 247 | 29.0 | 33.8 | 0.00 | 0.05 | 0.00 | 56 | 1041.5 |
| 20260904101939 | 25 | 157 | 12.9 | 27.4 | 0.00 | 0.05 | 0.00 | 58 | 1040.6 |
| 20260904101439 | 25 | 270 | 12.9 | 27.4 | 0.00 | 0.05 | 0.00 | 58 | 1034.3 |
| 20260904101238 | 25 | 180 | 6.4 | 30.6 | 0.00 | 0.05 | 0.00 | 58 | 1028.0 |
| 20260904100939 | 25 | 247 | 6.4 | 33.8 | 0.00 | 0.05 | 0.00 | 58 | 1034.3 |
| 20260904100439 | 25 | 202 | 14.5 | 20.9 | 0.00 | 0.05 | 0.00 | 58 | 1056.5 |
| 20260904095939 | 25 | 0 | 14.5 | 27.4 | 0.00 | 0.05 | 0.00 | 58 | 1018.5 |
| 20260904095439 | 24 | 202 | 17.7 | 25.7 | 0.00 | 0.05 | 0.00 | 60 | 1037.5 |
| 20260904094939 | 24 | 247 | 19.3 | 22.5 | 0.00 | 0.05 | 0.00 | 61 | 1028.0 |
| 20260904094439 | 23 | 270 | 17.7 | 24.1 | 0.00 | 0.05 | 0.00 | 60 | 1048.7 |
| 20260904093939 | 24 | 225 | 16.1 | 30.6 | 0.00 | 0.05 | 0.00 | 60 | 1018.5 |
| 20260904093440 | 24 | 270 | 11.3 | 27.4 | 0.00 | 0.05 | 0.00 | 61 | 1034.3 |
| 20260904092939 | 23 | 225 | 19.3 | 25.7 | 0.00 | 0.05 | 0.00 | 62 | 1037.5 |
| 20260904092439 | 23 | 225 | 25.7 | 29.0 | 0.00 | 0.05 | 0.00 | 62 | 1028.0 |
| 20260904091939 | 23 | 270 | 20.9 | 22.5 | 0.00 | 0.05 | 0.00 | 63 | 1043.8 |
| 20260904091439 | 23 | 112 | 6.4 | 27.4 | 0.00 | 0.05 | 0.00 | 63 | 1021.6 |
| 20260904090940 | 23 | 157 | 11.3 | 30.6 | 0.00 | 0.05 | 0.00 | 64 | 1034.3 |
| 20260904090639 | 22 | 225 | 12.9 | 29.0 | 0.00 | 0.05 | 0.00 | 64 | 1018.5 |
| 20260904090440 | 22 | 202 | 19.3 | 24.1 | 0.00 | 0.05 | 0.00 | 64 | 1024.9 |
| 20260904085940 | 22 | 270 | 24.1 | 33.8 | 0.00 | 0.05 | 0.00 | 64 | 1046.9 |
| 20260904085439 | 22 | 202 | 24.1 | 27.4 | 0.00 | 0.05 | 0.00 | 63 | 1021.6 |
| 20260904084939 | 23 | 202 | 19.3 | 33.8 | 0.00 | 0.05 | 0.00 | 62 | 1015.4 |
| 20260904084440 | 23 | 157 | 16.1 | 33.8 | 0.00 | 0.05 | 0.00 | 62 | 1021.6 |
| 20260904083940 | 24 | 225 | 12.9 | 24.1 | 0.00 | 0.05 | 0.00 | 62 | 1043.7 |
| 20260904083440 | 24 | 225 | 11.3 | 22.5 | 0.00 | 0.05 | 0.00 | 64 | 1043.8 |
| 20260904083339 | 24 | 180 | 12.9 | 22.5 | 0.00 | 0.05 | 0.00 | 64 | 1046.9 |
| 20260904082940 | 24 | 247 | 14.5 | 25.7 | 0.00 | 0.05 | 0.00 | 65 | 1040.6 |
| 20260904082440 | 23 | 202 | 25.7 | 25.7 | 0.00 | 0.05 | 0.00 | 66 | 1028.0 |
| 20260904081940 | 23 | 247 | 14.5 | 22.5 | 0.00 | 0.05 | 0.00 | 68 | 1021.6 |
| 20260904081440 | 22 | 270 | 20.9 | 20.9 | 0.00 | 0.05 | 0.00 | 70 | 1012.2 |
| 20260904080440 | 21 | 270 | 9.7 | 20.9 | 0.00 | 0.05 | 0.00 | 73 | 1018.5 |
| 20260904080039 | 21 | 247 | 12.9 | 25.7 | 0.00 | 0.05 | 0.00 | 73 | 1021.7 |
| 20260904075940 | 21 | 225 | 12.9 | 30.6 | 0.00 | 0.05 | 0.00 | 73 | 1037.4 |
| 20260904075440 | 21 | 247 | 22.5 | 29.0 | 0.00 | 0.05 | 0.00 | 73 | 1034.3 |
| 20260904074940 | 21 | 247 | 9.7 | 24.1 | 0.00 | 0.05 | 0.00 | 74 | 1015.4 |
| 20260904074440 | 20 | 225 | 12.9 | 17.7 | 0.00 | 0.05 | 0.00 | 74 | 1046.9 |
| 20260904073440 | 20 | 202 | 9.7 | 12.9 | 0.00 | 0.05 | 0.00 | 74 | 1028.0 |
| 20260904072940 | 20 | 112 | 4.8 | 22.5 | 0.00 | 0.05 | 0.00 | 74 | 1040.6 |
| 20260904072739 | 20 | 247 | 14.5 | 22.5 | 0.00 | 0.05 | 0.00 | 74 | 1028.0 |
| 20260904072440 | 20 | 202 | 11.3 | 27.4 | 0.00 | 0.05 | 0.00 | 74 | 1015.4 |
| 20260904071940 | 21 | 202 | 12.9 | 20.9 | 0.00 | 0.05 | 0.00 | 73 | 1031.1 |
| 20260904071440 | 21 | 270 | 14.5 | 27.4 | 0.00 | 0.05 | 0.00 | 74 | 1040.6 |
| 20260904070940 | 21 | 202 | 4.8 | 16.1 | 0.00 | 0.05 | 0.00 | 76 | 1046.8 |
| 20260904070440 | 21 | 225 | 11.3 | 16.1 | 0.00 | 0.05 | 0.00 | 79 | 1034.3 |
| 20260904065940 | 20 | 202 | 12.9 | 14.5 | 0.00 | 0.05 | 0.00 | 79 | 1034.3 |
| 20260904065439 | 20 | 202 | 11.3 | 17.7 | 0.00 | 0.05 | 0.00 | 79 | 1043.8 |
| 20260904064940 | 20 | 157 | 3.2 | 16.1 | 0.00 | 0.05 | 0.00 | 81 | 1043.8 |
| 20260904064440 | 20 | 225 | 4.8 | 12.9 | 0.00 | 0.05 | 0.00 | 82 | 1028.0 |
| 20260904063940 | 19 | 225 | 3.2 | 12.9 | 0.00 | 0.05 | 0.00 | 83 | 1046.9 |
| 20260904063440 | 18 | 270 | 12.9 | 16.1 | 0.00 | 0.05 | 0.00 | 84 | 1037.5 |
| 20260904062940 | 18 | 202 | 6.4 | 14.5 | 0.00 | 0.05 | 0.00 | 84 | 1031.2 |
| 20260904062440 | 18 | 202 | 6.4 | 12.9 | 0.00 | 0.05 | 0.00 | 84 | 1043.8 |
| 20260904062139 | 18 | 225 | 6.4 | 12.9 | 0.00 | 0.05 | 0.00 | 84 | 1046.9 |
| 20260904061940 | 18 | 225 | 9.7 | 12.9 | 0.00 | 0.05 | 0.00 | 84 | 1043.7 |
| 20260904060940 | 17 | 225 | 6.4 | 16.1 | 0.00 | 0.05 | 0.00 | 85 | 1037.5 |
| 20260904060440 | 17 | 202 | 8.0 | 17.7 | 0.00 | 0.05 | 0.00 | 85 | 1056.4 |
| 20260904055940 | 17 | 202 | 16.1 | 16.1 | 0.00 | 0.05 | 0.00 | 85 | 1053.2 |
| 20260904055440 | 17 | 202 | 3.2 | 19.3 | 0.00 | 0.05 | 0.00 | 85 | 1050.1 |
| 20260904054941 | 17 | 247 | 9.7 | 19.3 | 0.00 | 0.05 | 0.00 | 85 | 1031.1 |
| 20260904054839 | 17 | 202 | 4.8 | 19.3 | 0.00 | 0.05 | 0.00 | 85 | 1051.9 |
| 20260904054440 | 17 | 247 | 9.7 | 12.9 | 0.00 | 0.05 | 0.00 | 85 | 1051.8 |
| 20260904053940 | 17 | 225 | 9.7 | 16.1 | 0.00 | 0.05 | 0.00 | 85 | 1040.6 |
| 20260904053440 | 17 | 225 | 6.4 | 12.9 | 0.00 | 0.05 | 0.00 | 84 | 1043.7 |
| 20260904052940 | 17 | 225 | 12.9 | 14.5 | 0.00 | 0.05 | 0.00 | 84 | 1037.5 |
| 20260904052456 | 17 | 247 | 9.7 | 16.1 | 0.00 | 0.05 | 0.00 | 84 | 1021.1 |
| 20260904052440 | 17 | 202 | 8.0 | 16.1 | 0.00 | 0.05 | 0.00 | 84 | 1043.8 |
| 20260904051940 | 17 | 247 | 9.7 | 16.1 | 0.00 | 0.05 | 0.00 | 84 | 1021.1 |
| 20260904051539 | 16 | 225 | 6.4 | 16.1 | 0.00 | 0.05 | 0.00 | 84 | 1034.3 |
| 20260904051440 | 16 | 202 | 16.1 | 16.1 | 0.00 | 0.05 | 0.00 | 84 | 1043.8 |
| 20260904050940 | 16 | 225 | 12.9 | 16.1 | 0.00 | 0.05 | 0.00 | 84 | 1024.8 |
| 20260904050440 | 16 | 202 | 4.8 | 12.9 | 0.00 | 0.05 | 0.00 | 84 | 1046.9 |
| 20260904045940 | 16 | 225 | 12.9 | 14.5 | 0.00 | 0.05 | 0.00 | 83 | 1044.3 |
| 20260904045440 | 16 | 202 | 11.3 | 14.5 | 0.00 | 0.05 | 0.00 | 83 | 1002.5 |
| 20260904044940 | 16 | 225 | 3.2 | 14.5 | 0.00 | 0.05 | 0.00 | 83 | 1044.9 |
| 20260904044440 | 16 | 247 | 4.8 | 16.1 | 0.00 | 0.05 | 0.00 | 83 | 1036.6 |
| 20260904044239 | 16 | 247 | 14.5 | 16.1 | 0.00 | 0.05 | 0.00 | 83 | 1043.8 |
| 20260904043940 | 16 | 225 | 6.4 | 14.5 | 0.00 | 0.05 | 0.00 | 83 | 1017.9 |
| 20260904043440 | 16 | 247 | 8.0 | 16.1 | 0.00 | 0.05 | 0.00 | 83 | 1046.8 |
| 20260904042940 | 16 | 225 | 16.1 | 16.1 | 0.00 | 0.05 | 0.00 | 83 | 1063.2 |
| 20260904042440 | 16 | 247 | 8.0 | 16.1 | 0.00 | 0.05 | 0.00 | 83 | 1057.5 |
| 20260904041940 | 16 | 247 | 6.4 | 14.5 | 0.00 | 0.05 | 0.00 | 83 | 1062.7 |
| 20260904041440 | 16 | 247 | 9.7 | 17.7 | 0.00 | 0.05 | 0.00 | 83 | 1042.2 |
| 20260904040939 | 16 | 225 | 6.4 | 19.3 | 0.00 | 0.05 | 0.00 | 83 | 1062.7 |
| 20260904040440 | 16 | 270 | 4.8 | 11.3 | 0.00 | 0.05 | 0.00 | 83 | 1035.1 |
| 20260904035940 | 16 | 180 | 4.8 | 14.5 | 0.00 | 0.05 | 0.00 | 82 | 1033.7 |
| 20260904035440 | 16 | 225 | 8.0 | 11.3 | 0.00 | 0.05 | 0.00 | 82 | 1075.2 |
| 20260904034940 | 16 | 180 | 8.0 | 12.9 | 0.00 | 0.05 | 0.00 | 82 | 986.9 |
| 20260904034440 | 16 | 225 | 3.2 | 12.9 | 0.00 | 0.05 | 0.00 | 82 | 1033.4 |
| 20260904033940 | 16 | 202 | 12.9 | 14.5 | 0.00 | 0.05 | 0.00 | 81 | 1067.6 |
| 20260904033639 | 16 | 202 | 3.2 | 14.5 | 0.00 | 0.05 | 0.00 | 81 | 1055.4 |
| 20260904033440 | 16 | 225 | 9.7 | 14.5 | 0.00 | 0.05 | 0.00 | 81 | 1072.9 |
| 20260904032940 | 16 | 225 | 6.4 | 16.1 | 0.00 | 0.05 | 0.00 | 81 | 1037.5 |
| 20260904032440 | 16 | 202 | 6.4 | 9.7 | 0.00 | 0.05 | 0.00 | 81 | 1082.3 |
| 20260904031940 | 16 | 225 | 9.7 | 12.9 | 0.00 | 0.05 | 0.00 | 81 | 1062.7 |
| 20260904031440 | 16 | 225 | 4.8 | 9.7 | 0.00 | 0.05 | 0.00 | 81 | 1069.2 |
| 20260904030940 | 16 | 247 | 9.7 | 12.9 | 0.00 | 0.05 | 0.00 | 81 | 1088.6 |
| 20260904030440 | 16 | 202 | 6.4 | 9.7 | 0.00 | 0.05 | 0.00 | 81 | 1060.2 |
| 20260904030339 | 16 | 225 | 8.0 | 8.0 | 0.00 | 0.05 | 0.00 | 81 | 1019.3 |
| 20260904025940 | 16 | 247 | 3.2 | 11.3 | 0.00 | 0.05 | 0.00 | 81 | 1067.4 |
| 20260904025440 | 16 | 202 | 9.7 | 9.7 | 0.00 | 0.05 | 0.00 | 81 | 1060.9 |
| 20260904024940 | 16 | 225 | 6.4 | 14.5 | 0.00 | 0.05 | 0.00 | 81 | 1079.6 |
| 20260904024440 | 16 | 180 | 6.4 | 8.0 | 0.00 | 0.05 | 0.00 | 81 | 1061.1 |
| 20260904023940 | 16 | 247 | 6.4 | 9.7 | 0.00 | 0.05 | 0.00 | 81 | 1082.5 |
| 20260904023440 | 16 | 225 | 6.4 | 11.3 | 0.00 | 0.05 | 0.00 | 81 | 1030.3 |
| 20260904023039 | 16 | 202 | 9.7 | 9.7 | 0.00 | 0.05 | 0.00 | 81 | 1040.4 |
| 20260904022940 | 16 | 202 | 6.4 | 8.0 | 0.00 | 0.05 | 0.00 | 81 | 1009.9 |
| 20260904022440 | 16 | 225 | 8.0 | 9.7 | 0.00 | 0.05 | 0.00 | 81 | 1043.8 |
| 20260904021940 | 16 | 225 | 4.8 | 11.3 | 0.00 | 0.05 | 0.00 | 81 | 1022.5 |
| 20260904021440 | 16 | 180 | 6.4 | 9.7 | 0.00 | 0.05 | 0.00 | 81 | 1070.5 |
| 20260904020940 | 16 | 202 | 3.2 | 16.1 | 0.00 | 0.05 | 0.00 | 81 | 1067.4 |
| 20260904020440 | 16 | 225 | 4.8 | 11.3 | 0.00 | 0.05 | 0.00 | 81 | 1072.1 |
| 20260904015940 | 16 | 247 | 4.8 | 12.9 | 0.00 | 0.05 | 0.00 | 81 | 1038.2 |
| 20260904015739 | 16 | 202 | 6.4 | 12.9 | 0.00 | 0.05 | 0.00 | 81 | 1042.2 |
| 20260904015440 | 16 | 180 | 4.8 | 12.9 | 0.00 | 0.05 | 0.00 | 81 | 1067.0 |
| 20260904014940 | 16 | 202 | 6.4 | 9.7 | 0.00 | 0.05 | 0.00 | 81 | 1076.5 |
| 20260904014440 | 16 | 202 | 6.4 | 9.7 | 0.00 | 0.05 | 0.00 | 81 | 1065.2 |
| 20260904014036 | 16 | 180 | 9.7 | 9.7 | 0.00 | 0.05 | 0.00 | 81 | 1086.3 |
| 20260904013940 | 16 | 180 | 9.7 | 9.7 | 0.00 | 0.05 | 0.00 | 81 | 1086.3 |
| 20260904013440 | 16 | 157 | 9.7 | 14.5 | 0.00 | 0.05 | 0.00 | 81 | 1077.0 |
| 20260904012940 | 16 | 225 | 9.7 | 11.3 | 0.00 | 0.05 | 0.00 | 81 | 1086.2 |
| 20260904012439 | 16 | 202 | 1.6 | 11.3 | 0.00 | 0.05 | 0.00 | 81 | 1056.4 |
| 20260904011940 | 16 | 157 | 3.2 | 11.3 | 0.00 | 0.05 | 0.00 | 80 | 1055.9 |
| 20260904011440 | 16 | 180 | 4.8 | 9.7 | 0.00 | 0.05 | 0.00 | 80 | 1085.5 |
| 20260904010940 | 16 | 180 | 6.4 | 11.3 | 0.00 | 0.05 | 0.00 | 80 | 1072.1 |
| 20260904010440 | 16 | 157 | 9.7 | 14.5 | 0.00 | 0.05 | 0.00 | 80 | 1073.7 |
| 20260904005940 | 16 | 202 | 3.2 | 11.3 | 0.00 | 0.05 | 0.00 | 80 | 1068.9 |
| 20260904005441 | 16 | 180 | 9.7 | 12.9 | 0.00 | 0.05 | 0.00 | 80 | 1059.5 |
| 20260904005139 | 16 | 135 | 8.0 | 12.9 | 0.00 | 0.05 | 0.00 | 80 | 1059.5 |
| 20260904004940 | 16 | 157 | 8.0 | 12.9 | 0.00 | 0.05 | 0.00 | 80 | 1010.1 |
| 20260904004440 | 16 | 157 | 8.0 | 9.7 | 0.00 | 0.05 | 0.00 | 79 | 1057.9 |
| 20260904003941 | 16 | 180 | 0.0 | 8.0 | 0.00 | 0.05 | 0.00 | 79 | 1039.7 |
| 20260904003440 | 16 | 202 | 8.0 | 11.3 | 0.00 | 0.05 | 0.00 | 79 | 1020.9 |
| 20260904002940 | 16 | 202 | 4.8 | 8.0 | 0.00 | 0.05 | 0.00 | 79 | 1049.7 |
| 20260904002441 | 16 | 225 | 6.4 | 11.3 | 0.00 | 0.05 | 0.00 | 79 | 1073.3 |
| 20260904001940 | 16 | 157 | 4.8 | 11.3 | 0.00 | 0.05 | 0.00 | 79 | 1054.8 |
| 20260904001839 | 16 | 157 | 11.3 | 11.3 | 0.00 | 0.05 | 0.00 | 79 | 1061.1 |
| 20260904001440 | 16 | 157 | 6.4 | 8.0 | 0.00 | 0.05 | 0.00 | 79 | 1028.7 |
| 20260904000940 | 16 | 157 | 4.8 | 8.0 | 0.00 | 0.05 | 0.00 | 79 | 1070.5 |
| 20260904000440 | 16 | 112 | 4.8 | 9.7 | 0.00 | 0.05 | 0.00 | 78 | 1070.2 |
| 20260903235940 | 16 | 157 | 4.8 | 12.9 | 0.00 | 0.05 | 0.00 | 78 | 1056.4 |
| 20260903235441 | 16 | 180 | 1.6 | 6.4 | 0.00 | 0.05 | 0.00 | 78 | 1071.7 |
| 20260903234941 | 17 | 157 | 3.2 | 9.7 | 0.05 | 0.05 | 0.00 | 78 | 1050.1 |
| 20260903234540 | 17 | 180 | 1.6 | 6.4 | 0.05 | 0.05 | 0.00 | 78 | 1084.7 |
| 20260903234441 | 17 | 157 | 4.8 | 6.4 | 0.05 | 0.05 | 0.00 | 78 | 1070.5 |
| 20260903233941 | 17 | 157 | 6.4 | 9.7 | 0.05 | 0.05 | 0.00 | 77 | 1075.2 |
| 20260903233440 | 17 | 157 | 9.7 | 9.7 | 0.05 | 0.05 | 0.00 | 77 | 1072.1 |
| 20260903232940 | 17 | 157 | 4.8 | 8.0 | 0.05 | 0.05 | 0.00 | 77 | 1030.3 |
| 20260903232441 | 17 | 157 | 4.8 | 9.7 | 0.05 | 0.05 | 0.00 | 76 | 1067.4 |
| 20260903231940 | 17 | 157 | 6.4 | 9.7 | 0.05 | 0.05 | 0.00 | 75 | 1090.9 |
| 20260903231441 | 17 | 157 | 3.2 | 8.0 | 0.05 | 0.05 | 0.00 | 74 | 1062.7 |
| 20260903231240 | 17 | 157 | 8.0 | 11.3 | 0.05 | 0.05 | 0.00 | 74 | 1062.7 |
| 20260903230941 | 17 | 157 | 6.4 | 11.3 | 0.05 | 0.05 | 0.00 | 73 | 1053.2 |
| 20260903230441 | 17 | 157 | 11.3 | 12.9 | 0.05 | 0.05 | 0.00 | 72 | 1035.0 |
| 20260903225941 | 17 | 180 | 9.7 | 14.5 | 0.05 | 0.05 | 0.00 | 71 | 985.4 |
| 20260903225441 | 18 | 180 | 9.7 | 14.5 | 0.00 | 0.00 | 0.00 | 71 | 1062.7 |
| 20260903224941 | 18 | 202 | 12.9 | 19.3 | 0.00 | 0.00 | 0.00 | 70 | 1016.2 |
| 20260903224441 | 18 | 202 | 14.5 | 16.1 | 0.00 | 0.00 | 0.00 | 70 | 1019.3 |
| 20260903223940 | 18 | 202 | 16.1 | 16.1 | 0.00 | 0.00 | 0.00 | 70 | 1026.6 |
| 20260903223441 | 18 | 202 | 8.0 | 17.7 | 0.00 | 0.00 | 0.00 | 70 | 1086.2 |
| 20260903222941 | 18 | 225 | 8.0 | 9.7 | 0.00 | 0.00 | 0.00 | 70 | 1050.1 |
| 20260903222441 | 18 | 202 | 4.8 | 12.9 | 0.00 | 0.00 | 0.00 | 71 | 1028.8 |
| 20260903221941 | 18 | 157 | 4.8 | 4.8 | 0.00 | 0.00 | 0.00 | 71 | 1058.0 |
| 20260903221441 | 18 | 225 | 1.6 | 4.8 | 0.00 | 0.00 | 0.00 | 71 | 1017.7 |
| 20260903220941 | 18 | 157 | 1.6 | 8.0 | 0.00 | 0.00 | 0.00 | 70 | 1021.8 |
| 20260903220640 | 18 | 202 | 8.0 | 9.7 | 0.00 | 0.00 | 0.00 | 71 | 1075.2 |
| 20260903220441 | 18 | 180 | 4.8 | 9.7 | 0.00 | 0.00 | 0.00 | 70 | 1078.4 |
| 20260903215941 | 18 | 202 | 3.2 | 9.7 | 0.00 | 0.00 | 0.00 | 70 | 993.3 |
| 20260903215441 | 18 | 225 | 4.8 | 8.0 | 0.00 | 0.00 | 0.00 | 70 | 1088.9 |
| 20260903214941 | 18 | 180 | 6.4 | 9.7 | 0.00 | 0.00 | 0.00 | 70 | 1067.4 |
| 20260903214441 | 18 | 180 | 6.4 | 11.3 | 0.00 | 0.00 | 0.00 | 69 | 1067.4 |
| 20260903213941 | 18 | 135 | 4.8 | 8.0 | 0.00 | 0.00 | 0.00 | 69 | 1065.8 |
| 20260903213441 | 18 | 202 | 4.8 | 8.0 | 0.00 | 0.00 | 0.00 | 69 | 1065.5 |
| 20260903213340 | 18 | 202 | 3.2 | 8.0 | 0.00 | 0.00 | 0.00 | 69 | 1029.4 |
| 20260903212941 | 18 | 225 | 4.8 | 12.9 | 0.00 | 0.00 | 0.00 | 69 | 1017.8 |
| 20260903212441 | 18 | 202 | 4.8 | 9.7 | 0.00 | 0.00 | 0.00 | 69 | 1031.2 |
| 20260903211941 | 18 | 202 | 3.2 | 11.3 | 0.00 | 0.00 | 0.00 | 69 | 1065.8 |
| 20260903211441 | 18 | 180 | 3.2 | 12.9 | 0.00 | 0.00 | 0.00 | 69 | 1053.2 |
| 20260903210941 | 18 | 180 | 6.4 | 6.4 | 0.00 | 0.00 | 0.00 | 69 | 1065.8 |
| 20260903210441 | 18 | 157 | 3.2 | 12.9 | 0.00 | 0.00 | 0.00 | 68 | 1062.7 |
| 20260903210040 | 18 | 202 | 3.2 | 9.7 | 0.00 | 0.00 | 0.00 | 68 | 1050.1 |
| 20260903205941 | 18 | 157 | 3.2 | 9.7 | 0.00 | 0.00 | 0.00 | 68 | 1013.0 |
| 20260903205441 | 18 | 157 | 4.8 | 8.0 | 0.00 | 0.00 | 0.00 | 68 | 1052.9 |
| 20260903204941 | 18 | 157 | 6.4 | 8.0 | 0.00 | 0.00 | 0.00 | 68 | 1056.4 |
| 20260903204441 | 18 | 202 | 6.4 | 8.0 | 0.00 | 0.00 | 0.00 | 68 | 1073.7 |
| 20260903203941 | 18 | 180 | 3.2 | 8.0 | 0.00 | 0.00 | 0.00 | 68 | 1033.5 |
| 20260903203441 | 18 | 180 | 6.4 | 8.0 | 0.00 | 0.00 | 0.00 | 68 | 1081.5 |
| 20260903202941 | 18 | 157 | 3.2 | 6.4 | 0.00 | 0.00 | 0.00 | 68 | 1091.0 |
| 20260903202740 | 18 | 180 | 3.2 | 6.4 | 0.00 | 0.00 | 0.00 | 68 | 1050.1 |
| 20260903202441 | 18 | 202 | 4.8 | 8.0 | 0.00 | 0.00 | 0.00 | 68 | 1067.4 |
| 20260903201941 | 18 | 225 | 8.0 | 8.0 | 0.00 | 0.00 | 0.00 | 68 | 1070.5 |
| 20260903201441 | 18 | 202 | 4.8 | 6.4 | 0.00 | 0.00 | 0.00 | 68 | 1067.5 |
| 20260903200941 | 18 | 157 | 0.0 | 8.0 | 0.00 | 0.00 | 0.00 | 68 | 1027.2 |
| 20260903200441 | 18 | 180 | 3.2 | 8.0 | 0.00 | 0.00 | 0.00 | 67 | 1077.8 |
| 20260903195440 | 18 | 202 | 4.8 | 9.7 | 0.00 | 0.00 | 0.00 | 67 | 1059.5 |
| 20260903194941 | 18 | 180 | 3.2 | 8.0 | 0.00 | 0.00 | 0.00 | 67 | 1087.8 |
| 20260903194441 | 18 | 157 | 3.2 | 8.0 | 0.00 | 0.00 | 0.00 | 66 | 1086.3 |
| 20260903193941 | 18 | 180 | 6.4 | 8.0 | 0.00 | 0.00 | 0.00 | 66 | 1065.8 |
| 20260903193441 | 18 | 180 | 3.2 | 8.0 | 0.00 | 0.00 | 0.00 | 66 | 1069.0 |
| 20260903192941 | 18 | 180 | 4.8 | 6.4 | 0.00 | 0.00 | 0.00 | 66 | 1059.5 |
| 20260903192441 | 19 | 157 | 1.6 | 8.0 | 0.00 | 0.00 | 0.00 | 65 | 1078.4 |
| 20260903192140 | 19 | 157 | 3.2 | 8.0 | 0.00 | 0.00 | 0.00 | 65 | 1042.9 |
| 20260903191941 | 19 | 180 | 1.6 | 4.8 | 0.00 | 0.00 | 0.00 | 65 | 982.3 |
| 20260903191441 | 19 | 202 | 3.2 | 8.0 | 0.00 | 0.00 | 0.00 | 65 | 1048.7 |
| 20260903190941 | 19 | 180 | 6.4 | 8.0 | 0.00 | 0.00 | 0.00 | 65 | 1015.4 |
| 20260903190441 | 19 | 180 | 4.8 | 6.4 | 0.00 | 0.00 | 0.00 | 64 | 1059.5 |
| 20260903185941 | 19 | 180 | 1.6 | 4.8 | 0.00 | 0.00 | 0.00 | 64 | 1068.8 |
| 20260903185441 | 19 | 157 | 3.2 | 6.4 | 0.00 | 0.00 | 0.00 | 63 | 1079.6 |
| 20260903184941 | 19 | 180 | 1.6 | 6.4 | 0.00 | 0.00 | 0.00 | 63 | 1027.2 |
| 20260903184840 | 19 | 202 | 1.6 | 6.4 | 0.00 | 0.00 | 0.00 | 63 | 1086.3 |
| 20260903184441 | 19 | 157 | 4.8 | 8.0 | 0.00 | 0.00 | 0.00 | 63 | 1022.5 |
| 20260903183941 | 19 | 157 | 3.2 | 6.4 | 0.00 | 0.00 | 0.00 | 63 | 1065.8 |
| 20260903183441 | 20 | 157 | 3.2 | 8.0 | 0.00 | 0.00 | 0.00 | 63 | 1072.1 |
| 20260903182941 | 20 | 202 | 6.4 | 8.0 | 0.00 | 0.00 | 0.00 | 62 | 1087.5 |
| 20260903182441 | 20 | 180 | 0.0 | 6.4 | 0.00 | 0.00 | 0.00 | 62 | 1036.6 |
| 20260903181942 | 20 | 202 | 3.2 | 9.7 | 0.00 | 0.00 | 0.00 | 61 | 1092.5 |
| 20260903181540 | 20 | 180 | 3.2 | 8.0 | 0.00 | 0.00 | 0.00 | 61 | 1065.8 |
| 20260903181441 | 20 | 202 | 3.2 | 11.3 | 0.00 | 0.00 | 0.00 | 61 | 1083.1 |
| 20260903180941 | 20 | 202 | 6.4 | 14.5 | 0.00 | 0.00 | 0.00 | 61 | 1067.4 |
| 20260903180441 | 20 | 247 | 6.4 | 9.7 | 0.00 | 0.00 | 0.00 | 61 | 1053.2 |
| 20260903175941 | 20 | 202 | 8.0 | 12.9 | 0.00 | 0.00 | 0.00 | 61 | 1064.2 |
| 20260903175441 | 20 | 202 | 9.7 | 11.3 | 0.00 | 0.00 | 0.00 | 61 | 1065.8 |
| 20260903174941 | 20 | 180 | 9.7 | 12.9 | 0.00 | 0.00 | 0.00 | 60 | 1012.7 |
| 20260903174441 | 20 | 225 | 6.4 | 6.4 | 0.00 | 0.00 | 0.00 | 60 | 1022.5 |
| 20260903174240 | 20 | 225 | 4.8 | 6.4 | 0.00 | 0.00 | 0.00 | 60 | 987.0 |
| 20260903173942 | 20 | 202 | 4.8 | 4.8 | 0.00 | 0.00 | 0.00 | 60 | 1079.9 |
| 20260903173441 | 20 | 180 | 3.2 | 4.8 | 0.00 | 0.00 | 0.00 | 59 | 1035.0 |
| 20260903172941 | 20 | 225 | 3.2 | 4.8 | 0.00 | 0.00 | 0.00 | 59 | 1076.8 |
| 20260903172441 | 20 | 157 | 1.6 | 3.2 | 0.00 | 0.00 | 0.00 | 58 | 1054.7 |
| 20260903171941 | 20 | 157 | 1.6 | 3.2 | 0.00 | 0.00 | 0.00 | 58 | 1081.5 |
| 20260903171441 | 20 | 202 | 1.6 | 3.2 | 0.00 | 0.00 | 0.00 | 57 | 1055.5 |
| 20260903170940 | 21 | 202 | 3.2 | 3.2 | 0.00 | 0.00 | 0.00 | 57 | 1025.6 |
| 20260903170441 | 21 | 180 | 3.2 | 3.2 | 0.00 | 0.00 | 0.00 | 56 | 1046.9 |
| 20260903165941 | 21 | 180 | 1.6 | 3.2 | 0.00 | 0.00 | 0.00 | 56 | 1073.7 |
| 20260903165441 | 21 | 202 | 3.2 | 4.8 | 0.00 | 0.00 | 0.00 | 55 | 1078.4 |
| 20260903164941 | 21 | 180 | 1.6 | 4.8 | 0.00 | 0.00 | 0.00 | 55 | 1025.6 |
| 20260903164441 | 21 | 225 | 4.8 | 4.8 | 0.00 | 0.00 | 0.00 | 54 | 1083.7 |
| 20260903163941 | 21 | 225 | 3.2 | 6.4 | 0.00 | 0.00 | 0.00 | 54 | 1022.1 |
| 20260903163640 | 22 | 225 | 3.2 | 6.4 | 0.00 | 0.00 | 0.00 | 53 | 1080.0 |
| 20260903163441 | 22 | 225 | 3.2 | 6.4 | 0.00 | 0.00 | 0.00 | 53 | 1091.1 |
| 20260903162941 | 22 | 225 | 1.6 | 8.0 | 0.00 | 0.00 | 0.00 | 52 | 1014.6 |
| 20260903162441 | 22 | 225 | 3.2 | 9.7 | 0.00 | 0.00 | 0.00 | 52 | 1076.8 |
| 20260903161941 | 22 | 270 | 4.8 | 9.7 | 0.00 | 0.00 | 0.00 | 51 | 1058.0 |
| 20260903161441 | 23 | 202 | 3.2 | 12.9 | 0.00 | 0.00 | 0.00 | 51 | 1031.1 |
| 20260903160941 | 23 | 247 | 4.8 | 12.9 | 0.00 | 0.00 | 0.00 | 50 | 1025.6 |
| 20260903160441 | 23 | 270 | 6.4 | 11.3 | 0.00 | 0.00 | 0.00 | 50 | 1067.3 |
| 20260903160340 | 23 | 270 | 3.2 | 11.3 | 0.00 | 0.00 | 0.00 | 50 | 1090.9 |
| 20260903155941 | 23 | 247 | 3.2 | 11.3 | 0.00 | 0.00 | 0.00 | 49 | 1033.4 |
| 20260903155441 | 23 | 225 | 6.4 | 12.9 | 0.00 | 0.00 | 0.00 | 49 | 1073.8 |
| 20260903154941 | 23 | 225 | 3.2 | 11.3 | 0.00 | 0.00 | 0.00 | 49 | 1071.5 |
| 20260903154441 | 23 | 225 | 4.8 | 8.0 | 0.00 | 0.00 | 0.00 | 49 | 1075.3 |
| 20260903153941 | 23 | 225 | 11.3 | 12.9 | 0.00 | 0.00 | 0.00 | 48 | 1034.3 |
| 20260903153441 | 23 | 202 | 4.8 | 22.5 | 0.00 | 0.00 | 0.00 | 48 | 1007.5 |
| 20260903153040 | 23 | 270 | 9.7 | 14.5 | 0.00 | 0.00 | 0.00 | 48 | 1043.8 |
| 20260903152941 | 23 | 270 | 9.7 | 14.5 | 0.00 | 0.00 | 0.00 | 48 | 1068.9 |
| 20260903152441 | 24 | 247 | 14.5 | 16.1 | 0.00 | 0.00 | 0.00 | 48 | 1040.4 |
| 20260903151942 | 24 | 202 | 3.2 | 9.7 | 0.00 | 0.00 | 0.00 | 47 | 1025.3 |
| 20260903151441 | 24 | 202 | 9.7 | 12.9 | 0.00 | 0.00 | 0.00 | 47 | 1036.6 |
| 20260903150941 | 24 | 225 | 9.7 | 9.7 | 0.00 | 0.00 | 0.00 | 47 | 1070.2 |
| 20260903150441 | 25 | 225 | 3.2 | 17.7 | 0.00 | 0.00 | 0.00 | 46 | 1067.4 |
| 20260903145942 | 25 | 202 | 6.4 | 14.5 | 0.00 | 0.00 | 0.00 | 46 | 1022.7 |
| 20260903145740 | 25 | 225 | 8.0 | 14.5 | 0.00 | 0.00 | 0.00 | 46 | 1059.2 |
| 20260903145442 | 25 | 270 | 11.3 | 12.9 | 0.00 | 0.00 | 0.00 | 46 | 1062.6 |
| 20260903144941 | 25 | 202 | 8.0 | 11.3 | 0.00 | 0.00 | 0.00 | 46 | 1081.5 |
| 20260903144442 | 25 | 202 | 4.8 | 17.7 | 0.00 | 0.00 | 0.00 | 46 | 1038.6 |
| 20260903143942 | 25 | 225 | 14.5 | 17.7 | 0.00 | 0.00 | 0.00 | 46 | 1059.1 |
| 20260903143441 | 25 | 247 | 14.5 | 16.1 | 0.00 | 0.00 | 0.00 | 47 | 1079.2 |
| 20260903142941 | 24 | 247 | 14.5 | 16.1 | 0.00 | 0.00 | 0.00 | 47 | 1056.3 |
| 20260903142441 | 24 | 202 | 8.0 | 16.1 | 0.00 | 0.00 | 0.00 | 47 | 1032.5 |
| 20260903141941 | 24 | 292 | 9.7 | 19.3 | 0.00 | 0.00 | 0.00 | 47 | 1073.7 |
| 20260903141442 | 24 | 270 | 1.6 | 14.5 | 0.00 | 0.00 | 0.00 | 47 | 1066.5 |
| 20260903140941 | 24 | 270 | 6.4 | 11.3 | 0.00 | 0.00 | 0.00 | 47 | 1059.5 |
| 20260903140442 | 24 | 270 | 4.8 | 16.1 | 0.00 | 0.00 | 0.00 | 47 | 1056.4 |
| 20260903135942 | 24 | 270 | 4.8 | 6.4 | 0.00 | 0.00 | 0.00 | 47 | 1081.3 |
| 20260903135441 | 24 | 270 | 6.4 | 12.9 | 0.00 | 0.00 | 0.00 | 46 | 1057.4 |
| 20260903135141 | 24 | 270 | 11.3 | 19.3 | 0.00 | 0.00 | 0.00 | 46 | 1037.5 |
| 20260903134942 | 24 | 225 | 4.8 | 19.3 | 0.00 | 0.00 | 0.00 | 46 | 1071.3 |
| 20260903134442 | 24 | 247 | 4.8 | 11.3 | 0.00 | 0.00 | 0.00 | 46 | 1071.7 |
| 20260903133942 | 25 | 292 | 8.0 | 16.1 | 0.00 | 0.00 | 0.00 | 45 | 1020.2 |